Home   Weather   Filderstadt   Past weeks

Flag for Germany Past Weather in Filderstadt, Baden-Württemberg, Germany — Yesterday and Last 2 Weeks

Now
27 °F

Clear.


Feels Like: 18 °F
Forecast: 23 / 35 °F
Wind: 8 mph from East

Location: Stuttgart-Echterdingen

Current Time: Dec 3, 2016 at 10:50:34 pm

Latest Report: Dec 3, 2016 at 10:20 pm


Visibility: 10 mi

Pressure: 30.24 "Hg

Humidity: 86%

Dew Point: 23 °F

Location of FilderstadtLocation

Past Weather in Filderstadt — Graph

°F

Filderstadt Temperature Yesterday

Maximum temperature yesterday: 43 °F (at 12:50 pm)
Minimum temperature yesterday: 36 °F (at 12:20 am)
Average temperature yesterday: 39 °F

High & Low Weather Summary for the Past Weeks

 TemperatureHumidityPressure
High61 °F (Nov 20, 1:50 pm)100% (Nov 20, 12:50 am)30.51 "Hg (Nov 20, 12:50 am)
Low19 °F (Nov 30, 5:20 am)31% (Dec 1, 1:50 pm)29.59 "Hg (Nov 21, 12:20 pm)
Average40 °F83%30.06 "Hg
* Reported Nov 18 9:20 pm — Dec 3 9:50 pm, Filderstadt, Weather by CustomWeather, © 2016

Note: Actual official high and low records may vary slightly from our data, if they occured in-between our weather recording intervals... More about our weather records

Advertising

Filderstadt Weather History for the Previous 24 Hours

Scroll right to see more
 ConditionsComfort  
Time TempWeatherWind HumidityBarometerVisibility
9:50 pm
Sat, Dec 3
28 °FClear.9 mph80%30.24 "Hg10 mi
9:20 pm28 °FClear.9 mph80%30.24 "Hg10 mi
8:50 pm27 °FClear.10 mph80%30.21 "Hg10 mi
8:20 pm30 °FClear.8 mph69%30.21 "Hg10 mi
7:50 pm30 °FClear.6 mph75%30.21 "Hg10 mi
7:20 pm32 °FClear.5 mph69%30.21 "Hg10 mi
6:50 pm30 °FClear.6 mph75%30.18 "Hg10 mi
6:20 pm32 °FClear.7 mph69%30.18 "Hg10 mi
5:50 pm32 °FClear.7 mph69%30.18 "Hg10 mi
5:20 pm32 °FClear.7 mph69%30.18 "Hg10 mi
4:50 pm34 °FClear.8 mph65%30.18 "Hg10 mi
4:20 pm36 °FSunny.8 mph60%30.18 "Hg10 mi
3:50 pm37 °FSunny.8 mph56%30.18 "Hg10 mi
3:20 pm39 °FSunny.8 mph52%30.18 "Hg10 mi
2:50 pm39 °FSunny.9 mph52%30.15 "Hg10 mi
2:20 pm41 °FSunny.10 mph49%30.15 "Hg10 mi
1:50 pm39 °FSunny.8 mph52%30.15 "Hg10 mi
1:20 pm39 °FPassing clouds.7 mph52%30.18 "HgN/A
12:50 pm39 °FSunny.9 mph48%30.18 "Hg10 mi
12:20 pm39 °FSunny.9 mph52%30.18 "Hg10 mi
11:50 am37 °FSunny.9 mph56%30.18 "Hg10 mi
11:20 am37 °FSunny.10 mph60%30.18 "Hg10 mi
10:50 am36 °FSunny.10 mph70%30.18 "Hg10 mi
10:20 am36 °FSunny.10 mph75%30.21 "Hg10 mi
9:20 am32 °FSunny.7 mph87%30.18 "Hg10 mi
8:50 am32 °FSunny.7 mph87%30.18 "Hg10 mi
8:20 am30 °FSunny.9 mph86%30.18 "Hg10 mi
7:50 am30 °FClear.7 mph86%30.15 "Hg10 mi
7:20 am30 °FPassing clouds.7 mph93%30.15 "HgN/A
6:50 am32 °FPassing clouds.8 mph87%30.15 "HgN/A
6:20 am34 °FPassing clouds.6 mph87%30.15 "HgN/A
5:50 am36 °FPartly cloudy.8 mph87%30.15 "HgN/A
5:20 am36 °FPassing clouds.7 mph87%30.15 "HgN/A
4:50 am36 °FPassing clouds.7 mph93%30.15 "HgN/A
4:20 am34 °FPassing clouds.8 mph93%30.15 "HgN/A
3:50 am34 °FPartly cloudy.3 mph93%30.15 "HgN/A
3:20 am36 °FPartly cloudy.5 mph93%30.15 "HgN/A
2:20 am37 °FPartly cloudy.7 mph93%30.15 "HgN/A
1:50 am37 °FLight rain. Passing clouds.8 mph100%30.15 "Hg4 mi
1:20 am39 °FLight rain. Fog.7 mph93%30.15 "Hg3 mi
12:50 am39 °FFog.6 mph93%30.15 "Hg3 mi
12:20 am39 °FPassing clouds.5 mph93%30.15 "Hg4 mi
11:50 pm
Fri, Dec 2
39 °FPassing clouds.5 mph93%30.15 "Hg4 mi
11:20 pm39 °FPassing clouds.3 mph93%30.15 "Hg4 mi
10:50 pm39 °FPassing clouds.3 mph93%30.15 "Hg4 mi
10:20 pm39 °FPassing clouds.5 mph93%30.15 "Hg4 mi
Weather by CustomWeather, © 2016

See weather overviewHow to use our weather pages